Regional Weather Roundup
Issued by NWS

Home | Current Version | Previous Version | Graphics & Text | Print | Product List | Glossary On
Versions: 1 2 3 4 5 6 7 8 9 10 11 12 13 14 15 16 17 18 19 20 21 22 23 24 25 26 27 28 29 30 31 32 33 34 35 36 37 38 39 40 41 42 43 44 45 46 47 48 49 50
030
ASUS45 KBOU 182310
RWRCO

WEATHER ROUNDUP FOR COLORADO
NATIONAL WEATHER SERVICE DENVER/BOULDER CO
500 PM MDT WED APR 18 2018

NOTE: "FAIR" INDICATES FEW OR NO CLOUDS BELOW 12000 FEET WITH NO
SIGNIFICANT WEATHER AND/OR OBSTRUCTIONS TO VISIBILITY.

COZ001>005-013-030-031-190000-
...NORTHWEST COLORADO...

CITY           SKY/WX    TMP DP  RH WIND       PRES   REMARKS
CRAIG          FAIR      51  20  29 E8        30.17F
HAYDEN         FAIR      49  10  20 SE5       30.19F
MEEKER         FAIR      52  13  21 E3        30.14F
RANGELY        FAIR      56  11  16 N3        30.13F
RABBIT EARS PA FAIR      32  10  40 CALM      30.24F
STEAMBOAT SPGS FAIR      47   9  21 NE3       30.18F
WALDEN         FAIR      43  -6  13 CALM      30.23S
$$

COZ006>008-011-190000-
...WEST CENTRAL VALLEYS...

CITY           SKY/WX    TMP DP  RH WIND       PRES   REMARKS
GRAND JUNCTION FAIR      60   8  12 W9        30.10F
MONTROSE       FAIR      56  -8   7 NW9       30.13F
EAGLE          FAIR      53   9  17 SW5       30.17F
RIFLE          FAIR      57  12  17 VRB5      30.12F
DELTA          FAIR      64  -7   5 CALM      30.11F
NUCLA          NOT AVBL
$$

COZ017>023-064>068-190000-
...SOUTHWEST COLORADO...

CITY           SKY/WX    TMP DP  RH WIND       PRES   REMARKS
DURANGO        FAIR      56  -5   8 VRB3      30.17F
CORTEZ         FAIR      60 -14   4 VRB7      30.14F
PAGOSA SPRINGS FAIR      57 -12   5 SW7       30.20S
TELLURIDE      FAIR      50   3  14 W12G20    30.20S
WOLF CREEK PAS FAIR      34   1  25 SW14G23   30.37S WCI  24
$$

COZ009-010-012-014-032>034-037-058>063-190000-
...CENTRAL COLORADO...

CITY           SKY/WX    TMP DP  RH WIND       PRES   REMARKS
ASPEN          FAIR      53   5  14 NW7       30.14F
BUENA VISTA    FAIR      54  -4   9 SE8       30.17F
COPPER MTN     NOT AVBL
BERTHOUD PASS  FAIR      23  14  68 S16G22    30.30S WCI  10
COTTONWOOD PAS FAIR      52  -9   7 E7        30.23S
GUNNISON       FAIR      55  -4   9 S7        30.13F
GRANBY         FAIR      46   1  15 W6        30.22S
KREMMLING      FAIR      55   0  10 NE5       30.19F
LEADVILLE      FAIR      43   6  21 S7        30.20F
MONARCH PASS   FAIR      34   0  23 NE12G18   30.39S WCI  25
SALIDA         FAIR      58  -3   8 SE12G18   30.22F
SUNLIGHT       FAIR      32  14  47 CALM      30.28S
WILKERSON PASS FAIR      37 -15  10 CALM      30.32S
$$

COZ069>075-190000-
...SAN LUIS VALLEY/SANGRE DE CRISTO MOUNTAINS...

CITY           SKY/WX    TMP DP  RH WIND       PRES   REMARKS
ALAMOSA        FAIR      56  -3   9 SE13      30.17F
DEL NORTE      FAIR      53   6  15 SE5G16    30.19F
LA VETA PASS   FAIR      41   7  24 N14       30.40R
SAGUACHE       NOT AVBL
$$

COZ035-036-038>040-190000-
...NORTHERN COLORADO FRONT RANGE...

CITY           SKY/WX    TMP DP  RH WIND       PRES   REMARKS
DENVER INTL AP FAIR      56  10  16 NE7       30.20S
AURORA         MOSUNNY   55   7  14 E13       30.21S
FRONT RANGE AP NOT AVBL
ERIE MUNI ARPT FAIR      58   6  12 SE7       30.25S
BOULDER MUN AP FAIR      55  10  16 E7        30.19S
CENTENNIAL     FAIR      53  11  18 SE10      30.20F
BROOMFIELD     MOSUNNY   55   7  14 SE7       30.20F
FORT COLLINS   FAIR      58  12  16 N5        30.20S
LONGMONT       NOT AVBL
$$

COZ041-046-047-076>085-087-088-190000-
...PIKES PEAK/PALMER DIVIDE AND SOUTHERN FOOTHILLS...

CITY           SKY/WX    TMP DP  RH WIND       PRES   REMARKS
COLO. SPRINGS  FAIR      55  -1  10 SE10G22   30.22F
A. F. ACADEMY  FAIR      53  -4   9 SE15      30.20S
SCHRIEVER AFB  NOT AVBL
CHEYENNE MTN   FAIR      49  -4  11 SE17G24   30.17F
ELLICOTT         N/A    N/A N/A N/A S15       30.22S
FALCON         FAIR      53  -2  10 S10G20    30.24S
FORT CARSON    FAIR      56  -7   7 S12       30.20S
LIMON          FAIR      55   7  14 N9G22     30.23S
MONUMENT HILL  FAIR      46   5  18 E13G21    30.24S
CANON CITY     FAIR      61   3  10 E16G24    30.18F
WALSENBURG     NOT AVBL
TRINIDAD       FAIR      58   1  10 E14G23    30.19F
$$

COZ042>045-048>051-090-091-190000-
...NORTHEAST COLORADO...

CITY           SKY/WX    TMP DP  RH WIND       PRES   REMARKS
GREELEY ARPT   FAIR      58   8  13 VRB3      30.20F
AKRON          FAIR      54  19  25 N17G29    30.22S
BURLINGTON     FAIR      57  18  21 N18G28    30.22S
WRAY           FAIR      59  18  20 NW20      30.21S
YUMA           FAIR      54  19  26 N16       30.22R
STERLING       FAIR      55  19  24 N16G25    30.21R
HOLYOKE        FAIR      61  21  21 NW21G28   30.20S
FORT MORGAN    FAIR      58  10  14 NE6       30.22S
$$

COZ086-089-092>099-190000-
...SOUTHEAST COLORADO...

CITY           SKY/WX    TMP DP  RH WIND       PRES   REMARKS
PUEBLO         FAIR      61   1   9 SE9       30.19F
LA JUNTA       FAIR      62   0   8 N6G20     30.21F
LAMAR          FAIR      64   8  11 N15G24    30.19F
SPRINGFIELD      N/A     60   6  11 N15G24    30.22F
$$




USA.gov is the U.S. government's official web portal to all federal, state and local government web resources and services.